Weather History for KHSE - June, 2014

Change the Weather History Date:

Monday, June 9, 2014

  Actual Average Record
Temperature  
Mean Temperature 77 °F 74 °F  
Max Temperature 80 °F 80 °F 87 °F (1933)
Min Temperature 74 °F 68 °F 53 °F (1991)
Degree Days  
Heating Degree Days 0 0  
Month to date heating degree days 0 0  
Since 1 June heating degree days 0 0  
Since 1 July heating degree days 2534 2584  
Cooling Degree Days 12 9  
Month to date cooling degree days 60 71  
Year to date cooling degree days 296 214  
Since 1 June cooling degree days 60 71  
Growing Degree Days 26 (Base 50)    
Moisture  
Dew Point 68 °F    
Average Humidity 75    
Maximum Humidity 82    
Minimum Humidity 67    
Precipitation  
Precipitation 0.00 in 0.14 in 3.26 in (1930)
Month to date precipitation 0.01 1.09  
Year to date precipitation 22.80 22.33  
Snow  
Snow 0.00 in - - ()
Month to date snowfall 0.0  
Since 1 July snowfall 5.7  
Snow Depth 0.00 in    
Sea Level Pressure  
Sea Level Pressure 29.97 in    
Wind  
Wind Speed 13 mph (South)    
Max Wind Speed 20 mph    
Max Gust Speed 24 mph    
Visibility 10 miles    
Events      
T = Trace of Precipitation, MM = Missing Value Source: NWS Daily Summary

Daily Weather History Graph

Daily Weather History Graph

Search for Another Location

Airport or City:

Trip Planner

Search our weather history database for the weather conditions in past years. The results will help you decide how hot, cold, wet, or windy it might be!

Date:

Astronomy

Jun. 09, 2014 Rise Set
Actual Time 5:47 AM EDT 8:16 PM EDT
Civil Twilight 5:17 AM EDT 8:45 PM EDT
Nautical Twilight 4:41 AM EDT 9:22 PM EDT
Astronomical Twilight 4:00 AM EDT 10:02 PM EDT
Moon 4:41 PM EDT (6/9) 3:05 AM EDT (6/9)
Length of Visible Light 15h 28m
Length of Day
14h 28m
Waxing Gibbous, 85% of the Moon is Illuminated
Jun 9
Waxing Gibbous
Jun 13
Full
Jun 19
Last Quarter
Jun 27
New
Jul 5
First Quarter

Hourly Weather History & Observations

Time (EDT) Temp. Heat Index Dew Point Humidity Pressure Visibility Wind Dir Wind Speed Gust Speed Precip Events Conditions
12:51 AM 75.0 °F - 66.0 °F 73% 29.96 in 10.0 mi South 8.1 mph - N/A   Clear
1:51 AM 73.9 °F - 66.0 °F 76% 29.96 in 10.0 mi SW 6.9 mph - N/A   Clear
2:51 AM 73.9 °F - 66.9 °F 79% 29.96 in 10.0 mi SSW 5.8 mph - N/A   Partly Cloudy
3:51 AM 73.9 °F - 66.9 °F 79% 29.94 in 10.0 mi SSW 5.8 mph - N/A   Partly Cloudy
4:51 AM 75.0 °F - 68.0 °F 79% 29.94 in 10.0 mi SSW 8.1 mph - N/A   Clear
5:51 AM 75.0 °F - 68.0 °F 79% 29.94 in 10.0 mi SSW 9.2 mph - N/A   Clear
6:51 AM 75.9 °F - 68.0 °F 76% 29.94 in 10.0 mi South 9.2 mph - N/A   Partly Cloudy
7:51 AM 77.0 °F - 70.0 °F 79% 29.96 in 10.0 mi SSW 6.9 mph - N/A   Clear
8:51 AM 75.9 °F - 69.1 °F 79% 29.96 in 10.0 mi South 10.4 mph - N/A   Clear
9:39 AM 78.1 °F - 69.1 °F 74% 29.98 in 10.0 mi SSW 9.2 mph - N/A   Mostly Cloudy
9:51 AM 78.1 °F - 69.1 °F 74% 29.99 in 10.0 mi SSW 8.1 mph - N/A   Mostly Cloudy
10:35 AM 79.0 °F - 69.1 °F 72% 29.99 in 10.0 mi South 9.2 mph - N/A   Scattered Clouds
10:51 AM 80.1 °F 82.9 °F 69.1 °F 69% 29.99 in 10.0 mi South 12.7 mph - N/A   Clear
11:51 AM 80.1 °F 82.9 °F 69.1 °F 69% 29.98 in 10.0 mi South 15.0 mph - N/A   Clear
1:51 PM 78.1 °F - 68.0 °F 71% 29.97 in 10.0 mi South 17.3 mph - N/A   Clear
4:51 PM 78.1 °F - 68.0 °F 71% 29.96 in 10.0 mi South 15.0 mph - N/A   Overcast
5:51 PM 78.1 °F - 66.9 °F 68% 29.96 in 10.0 mi South 15.0 mph - N/A   Mostly Cloudy
6:51 PM 77.0 °F - 66.0 °F 69% 29.96 in 10.0 mi South 15.0 mph - N/A   Overcast
7:51 PM 77.0 °F - 66.9 °F 71% 29.97 in 10.0 mi South 15.0 mph - N/A   Overcast
8:51 PM 77.0 °F - 66.0 °F 69% 29.96 in 10.0 mi South 13.8 mph - N/A   Overcast
9:51 PM 77.0 °F - 66.0 °F 69% 29.97 in 10.0 mi South 17.3 mph - N/A   Mostly Cloudy
10:51 PM 77.0 °F - 66.0 °F 69% 29.98 in 10.0 mi South 17.3 mph - N/A   Overcast
11:47 PM 77.0 °F - 66.2 °F 69% 29.97 in 10.0 mi South 13.8 mph - N/A   Overcast
11:51 PM 77.0 °F - 66.9 °F 71% 29.97 in 10.0 mi South 13.8 mph - N/A   Overcast